Showing default

HULIANWANG DIGUI-133, 67241

Orbit data source: Space-Track

HULIANWANG DIGUI-133, 67241 is a payload satellite owned by Zhongguo Xingwang (CN) in LEO that was launched on Thu, 25 Dec 2025 UTC via a CHANG ZHENG 8A launch vehicle from the Wenchang Satellite Launch Center (WSC). Payload-class satellites include a variety of spacecraft equipped with specific instruments for various scientific and technological missions. These include communications satellites like Starlink; space stations such as the ISS; scientific satellites like the Hubble; Earth observation satellites from companies like Planet Labs, Umbra, and HawkEye 360; GPS; miniature CubeSats for education and research; and military/defense satellites.

Loading next visibility...
Identifier
67241, 2025-311F
Orbit
LEO
Country
Flag of CNCN / PRC
Related business
Manufacturer
CAST
Mission
Operational Civil Communications
Bus & Motor
XINGWANG C, Unknown motor
Mass
~700 kg wet, ~700 kg dry
Launch date (UTC)
2025-12-25 (6 months ago)
Launch vehicle
CHANG ZHENG 8A
Launch site
Wenchang Satellite Launch Center (WSC)
Object type
Payload
Rocket body
Debris
Shape & HBR
Box + 2 Pan, 14.5 m
Radar Cross Section
5.935 m², Large (>1 m²)

Expand to show TLE details & history
Last TLE update: 22 hours ago

TLE from 22 hours ago
0 HULIANWANG DIGUI-133
1 67241U 25311F   26163.17485260 -.00000144  00000-0 -43256-4 0  9998
2 67241  50.0099 133.7692 0001059 309.2782  50.7997 13.29322071 22676
Epoch: 2026-06-12T04:11Z
TLE epoch observation values (Epoch: 2026-06-12T04:11:47.264Z)
Latitude
0.00004°
Longitude
170.31422°
Altitude
1,149.325 km
Speed
7.28 km/s
True Right ascension
08h 55m 04s
True Declination
0° 00' 00"
Sunlit
Object was in daylight at epoch
Visualization orbit readout
Latitude
Unknown
Longitude
Unknown
Altitude
Unknown
Speed
Unknown
Apparent Right ascension
Unknown
Apparent Declination
Unknown
Sunlit
N/A
Visualization observer readout
Local Sidereal Time
12:45:31
Azimuth
Unknown
Elevation
Unknown
Doppler factor
Unknown
Orbital elements
Apogee altitude
1,150.823 km
Perigee altitude
1,149.228 km
Semi-major axis
7,528.162 km
Eccentricity
0.00011
Inclination
50.0099°
RAAN
133.7692°
Arg. of periapsis
309.2782°
True anomaly
50.8091°
Mean anomaly
50.7997°
Eccentric anomaly
50.8044°
Mean motion
3.32284 °/min
Orbital period
108.34 mins
BSTAR
-0.000043256
Loading maneuver chart data...
Computing Atmospheric mass density...
Loading historical data...
Loading historical data...
Loading historical data...
Loading historical data...
Loading historical data...
Loading historical data...
Loading historical data...

Documentation

Showing up to 5 results
|